Wind_Speed
15 14 11 9 9 8 8 9 10 10 10 10 10 10 11 12 13 14 10 15 10 15 13 11 12 10 16 7 8 6 2 6 12 9 7 6 10 5 11 17 2 9 5 3 13
15 15 13 10 9 8 8 8 9 9 9 9 10 9 9 11 14 16 26 15 17 14 17 11 9 12 4 6 5 3 2 9 10 7 7 9 10 16 11 14 6 5 8 14 17
16 15 14 11 9 8 7 7 8 8 8 8 8 8 6 7 5 8 8 24 21 14 13 13 20 7 7 7 10 7 11 10 15 5 6 7 9 5 23 8 15 17 15 17 19
16 16 14 12 9 7 7 6 7 7 7 7 7 6 3 1 2 2 2 18 22 17 9 6 7 6 6 8 10 8 14 10 11 3 5 7 10 5 15 14 17 16 23 19 16
18 17 15 12 9 6 6 5 5 5 5 6 6 4 1 3 10 12 7 14 15 13 14 9 7 7 7 8 9 8 15 11 12 9 4 1 7 3 4 15 19 18 20 21 19
20 17 14 12 9 6 5 5 5 5 5 6 5 4 2 5 8 11 10 13 11 14 16 18 9 9 8 8 7 11 12 13 9 6 3 3 8 2 4 7 5 10 9 9 8
22 17 13 11 8 5 5 4 4 4 4 5 5 3 5 14 14 9 10 14 17 17 10 25 26 5 6 9 11 10 8 7 7 4 7 6 7 7 7 9 9 8 8 14 9
24 18 13 10 6 5 5 4 3 3 2 4 5 2 7 15 14 15 14 13 13 18 21 20 19 5 3 8 10 9 4 4 9 8 8 7 8 9 8 10 9 9 13 17 14
25 19 15 10 5 4 5 4 3 2 2 4 3 4 8 6 10 18 17 19 19 18 13 17 9 2 7 6 6 6 5 8 11 14 8 8 7 8 10 11 9 11 16 15 11
24 20 16 9 3 5 4 2 2 2 2 3 10 5 8 10 14 19 19 18 9 4 5 5 2 2 5 2 8 9 7 8 13 16 18 9 9 6 8 9 9 10 15 14 13
25 21 15 7 2 6 6 2 1 1 9 10 9 6 9 12 12 14 19 16 8 5 6 7 3 8 12 12 14 11 11 10 14 8 10 10 9 9 12 10 10 10 15 14 13
24 19 13 6 2 5 5 4 9 10 8 19 20 18 27 25 5 9 19 8 7 7 7 7 11 12 13 16 15 16 14 14 8 5 6 10 9 9 9 8 10 14 16 15 10
23 14 11 7 3 7 9 11 11 15 4 12 19 17 10 16 8 8 11 9 9 8 9 10 13 15 16 16 15 12 8 5 6 10 4 6 5 7 6 9 8 13 18 15 16
23 11 7 8 7 6 7 15 15 13 3 6 7 10 14 11 10 15 21 10 9 12 12 11 11 18 15 14 11 8 10 3 9 8 5 1 5 7 9 10 9 14 16 16 16
23 8 7 7 13 7 16 14 12 3 4 8 6 3 4 17 2 15 20 11 14 13 10 19 10 14 14 15 9 9 7 7 7 7 6 15 1 8 9 12 14 17 18 17 17
22 8 7 5 9 13 18 15 8 1 6 5 5 6 5 5 13 15 7 10 12 14 15 18 18 15 13 15 13 11 7 7 7 4 11 8 10 14 6 9 17 17 18 19 19
21 8 6 6 4 18 15 9 2 3 12 9 7 6 3 6 9 10 12 11 12 5 8 14 21 20 18 14 12 5 3 3 5 3 10 7 7 12 12 17 16 24 22 21 20
20 5 6 9 10 14 15 3 3 9 10 13 12 12 6 8 12 8 10 8 9 10 9 11 16 18 22 18 11 9 8 6 10 6 13 9 17 18 16 16 10 25 23 22 20
16 3 3 3 7 10 4 2 3 7 12 12 11 6 7 15 13 10 10 13 12 12 14 13 23 21 21 16 13 11 12 10 12 7 7 9 10 9 2 9 18 22 21 20 19
13 3 9 11 9 7 2 4 4 10 10 11 6 9 10 14 14 16 8 7 13 12 12 7 18 16 21 18 19 10 10 6 1 7 9 8 9 7 6 12 15 17 18 14 14
5 1 14 16 5 2 2 3 6 16 14 10 11 8 10 12 15 13 5 16 23 24 15 6 4 3 7 17 18 11 4 5 5 6 7 13 11 5 5 18 23 20 15 12 15
8 4 23 11 4 3 7 9 10 17 18 13 9 12 11 13 8 9 6 9 27 25 12 11 5 7 9 14 16 8 5 11 11 10 3 1 7 1 12 16 18 16 15 13 11
4 2 31 23 5 6 9 12 13 19 20 14 11 11 14 14 8 13 18 22 28 24 15 12 6 5 9 6 7 7 6 3 4 16 20 11 8 4 7 12 11 14 9 10 12
4 4 5 7 5 8 6 15 13 20 16 15 10 11 18 15 14 14 16 16 25 24 23 13 5 7 8 11 15 10 14 6 5 4 4 13 20 15 10 5 11 11 12 12 9
5 3 4 5 7 12 10 11 16 14 13 13 8 15 13 7 13 10 22 24 22 17 17 13 7 15 26 22 18 23 22 20 13 7 7 8 8 13 19 6 8 7 6 7 11
4 4 5 2 8 10 10 9 13 13 9 11 8 10 9 7 8 17 17 15 13 13 16 7 6 17 20 16 14 20 21 23 19 13 8 8 8 9 16 11 13 2 7 13 17
16 12 2 5 9 7 5 7 10 8 5 10 10 7 8 12 13 12 11 16 20 19 17 13 6 1 10 16 21 10 11 13 16 8 5 6 13 12 14 12 13 11 11 15 13
Wind_Direction
358 355 344 331 318 295 277 270 268 266 267 271 275 278 282 292 296 283 241 229 238 255 257 313 277 260 266 267 266 298 320 278 274 294 311 115 125 201 82 141 209 204 224 51 175
352 351 346 332 324 312 286 273 269 269 268 268 271 277 290 306 303 255 253 241 247 262 228 262 271 229 250 276 275 193 291 250 269 324 19 344 100 129 112 116 201 251 298 246 262
346 346 344 335 318 312 295 280 275 271 267 264 269 277 294 321 299 250 289 215 229 242 240 248 260 260 231 251 265 257 244 270 279 284 44 348 12 335 133 171 181 188 203 229 248
341 339 338 334 315 309 302 291 282 274 267 263 265 272 288 343 279 322 160 202 220 228 223 246 272 267 235 245 257 273 272 260 274 342 47 344 329 359 134 183 188 185 187 204 243
340 333 330 326 313 295 295 293 288 281 269 261 253 242 196 222 252 268 178 183 198 193 207 223 246 240 240 234 261 254 262 267 265 259 131 140 289 287 41 140 181 202 200 215 209
343 330 324 319 311 279 277 288 295 288 273 251 236 207 221 251 247 192 172 175 182 176 212 235 245 237 265 256 231 256 245 250 275 275 230 200 273 20 273 123 144 120 160 157 177
351 340 325 315 305 267 256 263 293 295 275 229 208 177 256 239 216 160 166 185 186 189 225 234 243 243 260 279 261 270 272 290 265 235 219 219 273 217 222 150 122 100 88 63 38
358 350 337 321 302 248 238 240 274 282 247 189 183 163 253 269 278 207 184 203 226 234 245 274 279 257 271 299 309 303 297 284 271 234 239 157 257 240 183 135 143 141 93 79 56
359 353 345 328 293 222 221 225 243 250 215 196 176 204 262 278 209 223 191 213 214 235 247 272 335 284 318 293 309 283 227 252 264 246 197 165 232 257 167 150 161 123 113 96 76
358 351 345 330 268 197 202 193 206 177 207 303 266 278 254 229 200 222 208 219 225 168 259 275 4 265 296 235 231 241 215 239 239 248 200 197 205 190 170 147 154 142 117 107 94
358 353 352 341 202 188 158 121 49 271 236 201 195 234 289 234 221 195 203 212 235 170 221 235 185 228 227 238 241 255 273 261 262 232 154 199 202 185 179 169 166 137 124 114 103
357 357 360 360 201 196 194 250 284 312 289 221 242 231 261 276 171 191 196 195 227 211 216 267 227 230 241 243 243 248 252 269 296 9 115 197 213 176 185 195 177 146 134 131 125
357 358 8 14 320 225 226 246 302 310 296 280 230 220 231 256 212 202 185 202 220 219 234 211 241 219 241 260 265 262 231 278 284 309 277 175 227 211 200 193 184 150 143 138 136
353 343 333 326 310 288 245 295 305 17 319 271 178 211 216 237 232 226 196 180 213 241 223 245 248 250 256 242 250 274 270 253 293 302 267 74 260 233 209 192 177 149 143 142 137
351 320 313 301 303 295 353 340 339 17 332 151 109 59 181 199 263 199 220 194 220 234 242 256 239 254 261 256 242 235 280 270 257 265 270 269 256 262 204 221 181 153 146 148 148
348 313 303 328 300 308 336 324 305 11 252 151 122 174 222 245 225 253 225 217 201 233 257 268 278 272 252 267 256 245 233 278 275 260 269 238 231 258 240 225 186 161 154 150 148
348 313 264 286 269 344 334 321 353 227 334 32 29 28 229 222 218 226 251 219 208 220 255 267 271 277 278 284 288 261 120 275 287 277 247 238 239 245 250 245 183 171 165 159 154
345 300 238 271 321 338 325 2 262 289 16 4 356 326 300 303 306 270 235 243 222 209 241 263 275 249 253 254 230 232 189 203 237 232 264 235 244 252 259 243 214 168 158 155 152
349 335 258 353 345 344 34 314 288 359 10 345 324 336 349 333 334 298 260 226 232 211 226 240 252 262 268 268 263 241 225 224 238 226 260 267 283 321 118 67 133 149 153 156 157
343 323 46 356 333 323 48 258 8 31 18 357 360 10 350 338 331 340 319 339 340 318 344 298 268 243 247 265 266 239 205 246 248 207 249 261 273 251 312 123 133 148 152 145 144
3 24 4 340 311 51 226 324 14 5 31 9 355 323 340 356 336 326 293 327 19 355 337 334 287 308 339 242 249 279 218 208 157 187 215 249 255 201 164 162 160 157 143 152 153
337 61 358 356 52 340 38 349 334 30 27 22 358 10 11 335 317 324 324 346 24 9 7 12 278 272 250 285 294 291 252 223 215 254 276 208 261 244 133 133 124 140 139 156 147
344 340 34 54 55 356 355 7 33 36 37 20 359 2 11 11 332 341 344 344 13 5 14 345 313 328 328 306 294 259 273 223 181 227 250 264 264 275 24 100 72 89 115 130 121
353 22 356 52 42 33 352 22 8 31 26 6 3 6 5 350 351 320 320 337 349 340 3 354 300 331 276 302 321 305 310 298 164 180 207 232 255 279 291 186 142 139 147 153 163
18 62 345 12 23 44 53 17 14 11 13 27 7 4 352 336 320 340 339 335 341 344 349 0 298 339 314 314 307 302 282 284 272 230 177 230 238 278 291 251 180 182 169 154 174
46 15 335 344 49 58 23 17 17 11 5 7 355 346 344 332 338 328 330 326 312 311 316 304 272 314 303 319 323 298 288 272 277 291 295 250 232 234 250 178 118 168 223 203 190
357 327 269 21 58 51 38 6 1 344 346 336 321 336 358 352 334 316 294 285 280 276 272 277 258 272 273 351 333 295 289 301 305 297 308 5 324 325 255 178 178 188 205 226 175
Height
804 802 799 797 796 794 793 793 793 793 793 793 794 793 793 792 791 790 786 777 777 778 779 778 779 780 779 775 773 770 808 817 798 787 772 745 773 775 774 782 789 783 773 778 780
804 801 798 796 794 792 791 791 791 791 791 792 792 792 792 791 789 783 771 773 775 777 778 779 779 778 785 776 775 784 807 795 774 771 770 758 755 775 789 795 792 785 775 778 781
803 800 797 795 793 791 790 789 789 789 790 790 791 791 791 791 789 769 762 767 772 775 776 777 776 777 785 778 778 779 795 775 765 762 755 760 755 745 781 798 780 782 778 777 778
801 798 795 793 791 789 788 788 788 788 788 789 789 789 790 791 793 763 762 764 770 774 775 775 775 783 787 791 773 788 770 766 760 753 755 765 756 760 765 774 761 760 764 771 778
799 796 793 791 789 787 787 787 787 787 787 787 788 788 790 791 778 765 764 766 769 772 773 774 778 778 789 780 776 781 771 761 754 754 752 751 764 759 762 756 761 762 766 772 770
798 794 790 788 786 786 785 786 786 786 786 786 787 788 789 793 762 762 763 766 767 770 771 771 771 766 774 775 780 766 764 759 754 755 751 760 765 758 757 748 752 756 759 759 761
794 790 787 785 784 784 784 785 785 785 785 785 786 787 786 775 761 761 762 765 766 767 767 764 762 767 765 775 759 760 772 761 759 754 759 754 774 769 754 750 755 756 758 765 765
792 788 785 783 782 782 783 784 784 784 784 785 786 788 783 758 759 764 762 765 765 765 764 761 759 761 764 761 762 775 766 792 765 756 751 760 797 760 751 753 757 758 763 769 775
791 787 784 782 781 781 782 783 784 784 785 785 787 787 776 755 754 756 759 761 761 761 762 760 759 763 767 785 796 781 802 790 777 749 754 764 783 756 748 753 760 761 764 770 778
790 786 783 781 780 781 782 783 784 785 785 786 785 790 765 753 750 753 755 757 758 759 764 764 770 784 787 797 819 804 794 784 778 752 751 767 771 757 751 753 760 761 765 771 777
790 785 782 780 780 781 783 784 788 788 783 775 767 761 748 744 746 749 752 755 755 762 784 772 794 806 792 780 774 771 778 781 760 741 751 764 766 760 750 753 759 762 766 773 778
790 786 783 781 780 782 783 781 771 769 773 758 754 755 748 745 748 747 750 761 764 782 774 786 796 774 765 762 765 767 775 775 753 738 747 761 763 754 751 752 752 758 764 769 775
791 787 784 783 782 781 779 775 768 765 774 749 738 747 746 743 747 749 747 754 766 777 779 790 771 757 762 764 766 765 772 766 768 750 746 756 769 757 747 746 745 750 755 762 768
790 787 785 784 785 781 777 771 768 765 793 758 742 737 739 740 749 737 739 751 763 774 773 773 756 759 762 765 758 779 749 747 757 771 799 752 808 768 751 756 751 754 758 762 767
788 786 784 783 780 777 773 770 767 767 821 737 734 724 726 742 734 737 734 744 763 765 768 766 760 761 764 756 746 762 742 752 756 772 777 769 794 774 749 757 753 751 753 759 763
786 783 783 782 779 775 772 769 768 800 808 746 734 740 743 737 739 734 739 736 741 758 756 756 738 744 746 735 736 732 746 754 760 774 795 781 779 767 765 746 744 746 748 752 757
784 782 781 781 778 775 772 769 801 809 741 755 749 739 743 747 744 742 747 757 768 782 783 763 753 736 731 747 736 739 763 807 812 811 795 766 778 755 736 721 728 738 742 746 751
781 780 780 779 778 776 773 787 808 771 767 751 755 751 759 748 746 743 749 761 749 757 771 780 781 748 729 738 753 753 763 796 821 816 789 763 771 747 717 709 703 718 729 741 749
779 778 779 779 778 777 783 806 791 775 769 772 761 766 765 752 755 751 749 750 740 742 768 769 758 727 722 722 728 744 757 746 773 774 788 768 753 731 715 711 707 724 732 743 749
779 779 780 780 778 777 792 799 782 771 770 773 784 774 791 777 774 772 764 741 748 734 736 746 757 728 717 713 712 728 725 764 773 801 810 777 764 761 735 733 725 730 736 744 753
780 783 782 778 776 783 803 788 780 772 776 784 792 792 789 797 789 781 768 755 758 758 740 743 754 743 728 729 732 730 737 738 752 764 793 784 765 724 722 723 722 727 737 745 750
787 794 786 776 793 792 810 801 789 788 789 797 795 800 809 807 798 794 781 775 784 780 786 775 764 760 747 721 713 721 725 728 750 772 772 775 765 707 720 716 720 733 735 742 748
799 793 790 780 821 823 814 801 797 806 816 820 816 814 815 818 816 795 796 787 793 797 803 798 782 780 759 736 720 728 718 728 739 751 777 783 767 719 721 721 734 739 744 747 754
803 812 809 807 817 824 822 826 821 816 822 825 825 820 827 830 824 822 812 801 805 812 806 800 797 793 783 760 747 748 729 728 749 772 764 761 743 732 731 734 731 734 739 743 750
813 828 828 832 828 832 833 837 836 836 834 832 834 835 838 839 831 826 823 818 813 808 814 819 815 804 791 785 769 749 734 724 733 738 756 747 758 746 738 733 735 729 737 736 745
837 841 834 829 830 835 842 847 843 841 840 840 842 835 836 842 839 834 831 831 829 817 817 818 815 807 790 775 762 754 736 722 722 723 735 735 739 723 719 725 737 745 745 743 739
847 843 839 836 840 845 849 846 844 841 838 836 835 835 836 839 835 831 828 823 819 817 818 820 816 811 797 788 780 769 741 732 724 724 741 755 750 728 722 712 720 721 722 723 728